{"data":{"norad_id":62456,"intl_designator":"2024-252C","name":"AGILA","alt_names":[],"object_type":"PAYLOAD","status":"ACTIVE","operator":null,"country":"RP","launch_date":"2024-12-29","launch_site_code":"AFETR","launch_vehicle":null,"mission":null,"orbit_class":"UNKNOWN","rcs_meters":null,"size_class":null,"mass_kg":null,"dimensions":null,"purposes":["comms"],"wikipedia_slug":null,"has_3d_model":false,"image_url":null,"decayed_at":null,"tle_current":{"epoch":"2026-05-24T21:37:17.526720Z","epoch_age_seconds":94197,"freshness":"FRESH","line1":"1 62456U 24252C   26144.90089730 -.00000185  00000+0  00000+0 0  9994","line2":"2 62456   0.0532 113.4542 0001298 332.8838 272.6313  1.00270187  4925","mean_motion":1.00270187,"eccentricity":0.0001298,"inclination_deg":0.0532,"raan_deg":113.4542,"arg_perigee_deg":332.8838,"mean_anomaly_deg":272.6313,"bstar":0,"rev_number":492,"period_min":1436.1197910202,"perigee_km":35781.569904192,"apogee_km":35792.515984906,"semimajor_km":42165.179944549,"source":"CELESTRAK","updated_at":"2026-05-25T13:38:14.149768Z"}}}